This is the latest recevied weather packets stored in our database for station/object KD4EG. If no packets are shown the sender has not sent any weather packets the latest 10 day(s).
| Time | Temp. | Humidity | Pressure | Rain* | Wind** | Luminosity | Snow |
|---|---|---|---|---|---|---|---|
| 1777726742 | 10° C | 52% | 1016.8 hPa | 0 mm | - | 111 W/m² | - |
| 1777726439 | 10° C | 54% | 1016.6 hPa | 0 mm | - | 120 W/m² | - |
| 1777726135 | 10° C | 52% | 1016.7 hPa | 0 mm | - | 125 W/m² | - |
| 1777725833 | 10° C | 54% | 1016.6 hPa | 0 mm | - | 113 W/m² | - |
| 1777725530 | 10° C | 54% | 1016.7 hPa | 0 mm | - | 115 W/m² | - |
| 1777725227 | 9.44° C | 54% | 1016.7 hPa | 0 mm | - | 106 W/m² | - |
| 1777724925 | 9.44° C | 54% | 1016.8 hPa | 0 mm | - | 101 W/m² | - |
| 1777724620 | 9.44° C | 53% | 1016.8 hPa | 0 mm | - | 106 W/m² | - |
| 1777724319 | 9.44° C | 55% | 1017.1 hPa | 0 mm | - | 92 W/m² | - |
| 1777724016 | 9.44° C | 54% | 1016.9 hPa | 0 mm | - | 75 W/m² | - |
| 1777723713 | 9.44° C | 55% | 1016.8 hPa | 0 mm | - | 77 W/m² | - |
| 1777723409 | 9.44° C | 56% | 1016.5 hPa | 0 mm | - | 62 W/m² | - |
| 1777723107 | 9.44° C | 57% | 1016.8 hPa | 0 mm | - | 58 W/m² | - |
| 1777722804 | 9.44° C | 56% | 1016.5 hPa | 0 mm | - | 60 W/m² | - |
| 1777722500 | 9.44° C | 55% | 1016.7 hPa | 0 mm | - | 58 W/m² | - |
| 1777722197 | 9.44° C | 56% | 1016.3 hPa | 0 mm | - | 42 W/m² | - |
| 1777721894 | 9.44° C | 55% | 1016.3 hPa | 0 mm | - | 44 W/m² | - |
| 1777721592 | 9.44° C | 54% | 1016.3 hPa | 0 mm | - | 45 W/m² | - |
| 1777721290 | 9.44° C | 55% | 1016.3 hPa | 0 mm | - | 24 W/m² | - |
| 1777720987 | 9.44° C | 54% | 1016.4 hPa | 0 mm | - | 28 W/m² | - |
| 1777720684 | 9.44° C | 54% | 1016.2 hPa | 0 mm | - | 32 W/m² | - |
| 1777720381 | 9.44° C | 53% | 1016.3 hPa | 0 mm | - | 32 W/m² | - |
| 1777720079 | 9.44° C | 53% | 1016.4 hPa | 0 mm | - | 39 W/m² | - |
| 1777719777 | 9.44° C | 53% | 1016.3 hPa | 0 mm | - | 30 W/m² | - |
| 1777719474 | 9.44° C | 55% | 1016 hPa | 0 mm | - | 16 W/m² | - |
* Rain latest hour (hover to see other rain measurements)
** Current wind speed in m/s (hover to see current wind gust speed)